EW8775 Weather Reports


Display with metric or nautical units.
time (UTC)temp
F
wind
direction
speed
MPH
gust
MPH
rain 1hr
in
rain 24hr
in
rain mn
in
humidity
%
barometer
mb
20260831020017 71 0.0 1.0 0.00 0.28 0.15 54 1015.8
20260831013017 72 180 1.0 8.0 0.00 0.30 0.15 50 1015.8
20260831010017 74 158 1.0 9.0 0.00 0.37 0.15 46 1016.0
20260831003057 75 180 1.0 7.0 0.00 0.37 0.15 48 1016.5
20260831000017 74 0.0 3.0 0.00 0.37 0.15 48 1015.8
20260830233017 75 0.0 5.0 0.00 0.37 0.15 48 1016.2
20260830230017 77 315 1.0 9.0 0.00 0.37 0.15 48 1016.4
20260830223017 75 0.0 0.0 0.00 0.37 0.15 48 1016.1
20260830220017 76 203 1.0 10.0 0.00 0.37 0.15 44 1016.6
20260830213017 78 180 4.0 12.0 0.00 0.37 0.15 43 1017.1
20260830210017 76 180 4.0 11.0 0.00 0.37 0.15 54 1017.3
20260830203017 74 180 2.0 10.0 0.00 0.37 0.15 59 1017.4
20260830200017 73 180 4.0 13.0 0.01 0.37 0.15 59 1017.1
20260830193056 75 180 3.0 14.0 0.01 0.37 0.15 59 1017.8
20260830190057 74 180 2.0 11.0 0.00 0.36 0.14 57 1018.2
20260830183016 73 180 2.0 9.0 0.00 0.36 0.14 65 1018.4
20260830180016 71 203 1.0 9.0 0.00 0.36 0.14 66 1017.7
20260830173016 68 0.0 5.0 0.00 0.38 0.14 75 1017.7
20260830170056 65 0.0 2.0 0.00 0.38 0.14 78 1017.5
20260830163016 63 0.0 3.0 0.00 0.39 0.14 81 1017.1
20260830160016 63 0.0 0.0 0.00 0.39 0.14 85 1016.9
20260830153016 61 0.0 0.0 0.00 0.40 0.14 87 1016.8
20260830150016 60 0.0 7.0 0.00 0.40 0.14 89 1016.5
20260830143056 60 0.0 2.0 0.09 0.41 0.14 89 1016.3
20260830140016 59 90 2.0 19.0 0.10 0.41 0.14 87 1015.4
20260830133056 60 0.0 7.0 0.01 0.32 0.05 86 1014.8
20260830130016 61 0.0 4.0 0.00 0.31 0.04 85 1016.3
20260830123016 61 113 1.0 6.0 0.00 0.31 0.04 85 1016.1
20260830120056 61 0.0 5.0 0.00 0.31 0.04 86 1016.1
20260830113016 60 0.0 0.0 0.00 0.31 0.04 87 1015.5
20260830110016 60 0.0 3.0 0.00 0.31 0.04 85 1015.5
20260830103016 60 0.0 3.0 0.00 0.31 0.04 86 1016.3
20260830100017 60 158 2.0 7.0 0.01 0.31 0.04 86 1016.9
20260830093019 61 90 2.0 7.0 0.01 0.31 0.04 83 1016.9
20260830090018 61 0 3.0 8.0 0.02 0.30 0.03 82 1016.3
20260830083017 60 90 1.0 7.0 0.02 0.32 0.03 86 1016.0
20260830080018 60 180 2.0 9.0 0.00 0.30 0.01 84 1015.7
20260830073018 60 135 2.0 8.0 0.01 0.30 0.01 86 1015.6
20260830070017 61 203 3.0 10.0 0.01 0.30 0.01 86 1016.7
20260830063017 61 0 3.0 8.0 0.00 0.34 0.00 86 1013.7
20260830060017 60 90 3.0 8.0 0.05 0.35 0.35 83 1013.5
20260830053016 61 68 2.0 9.0 0.09 0.35 0.35 84 1016.0
20260830050016 64 0 2.0 8.0 0.04 0.30 0.30 85 1018.4
20260830043016 64 68 2.0 7.0 0.04 0.26 0.26 85 1017.1
20260830040016 65 90 3.0 10.0 0.04 0.26 0.26 85 1016.7
20260830033016 66 338 4.0 9.0 0.00 0.22 0.22 74 1015.9
20260830030056 66 23 2.0 9.0 0.00 0.22 0.22 68 1013.6
20260830023016 66 68 3.0 9.0 0.02 0.22 0.22 61 1012.5